Погода в Ивами

Япония     34°53′31″N   132°26′53″E
темп.,
°C
ветер,
м/с
пор.,
м/с
влажн.,
%
обл.,
%
осадки,
мм/ч
давл.,
гПа
погр.,
м
17 мая, пн
пн1700:00+20ююз2598100 2.6 1005278
03:00+20ю2399100 7.9 1004128
06:00+18сз14100100 24.8 1005235
09:00+18з13100100 39.7 1005220
12:00+19сз1399100 3.0 1006217
15:00+18зсз1899100 3.3 1007529
18:00+17зсз2999100 0.3 1008891
21:00+16сз16100100 0.7 1010757
18 мая, вт
вт1800:00+15з1599100 0.3 1011456
03:00+15ссз12100100 0.5 1011234
06:00+15в0199100 0.1 1011253
09:00+16ссз1199100 0.1 1013154
12:00+16сз1298100 0.4 1012257
15:00+17з139167 0.4 1011387
18:00+17зсз2490100 0.1 1012470
21:00+14ююв119899 0.2 101318
19 мая, ср
ср1900:00+14юв009790 0.0 101311
03:00+13зсз1198100 0.0 101318
06:00+14з0196100 0.0 101446
09:00+19сз1172100 0.0 1014692
12:00+23с1155100 0.0 10131139
15:00+21сз2169100 0.0 1013540
18:00+19сз1284100 0.0 1014138
21:00+14вюв1197100 0.0 101515
20 мая, чт
чт2000:00+14юв2397100 0.0 101448
03:00+14юв3397100 0.0 101379
06:00+15юв2492100 0.1 1013122
09:00+14вюв2798100 5.0 1013361
12:00+15юв31298100 8.8 1011451
15:00+16ююв41597100 16.8 1009764
18:00+16ююв3599100 6.9 1009183
21:00+16юв2499100 11.1 1010128
21 мая, пт
пт2100:00+16юв3999100 2.3 1008281
03:00+19ююв41396100 6.8 10041000
06:00+19юв2699100 13.3 1004285
09:00+19ю3997100 19.3 1003468
12:00+17сз11100100 4.0 1005166
15:00+17ссз1299100 4.1 1005289
18:00+16с1199100 0.3 1005204
21:00+15сз12100100 0.9 1006197